Location: Le Rocchette
(44.3500°N, 7.8333°E)
Time: 23:57:40
(UTC+00:00)

Cosmos 2360 Rocket - Pass Details

Date: 17 November 2019
Orbit: 832 x 847 km, 71.0° (Epoch: 06 December)

Event Time Altitude Azimuth Distance (km) Brightness Sun altitude
Exits shadow 04:49:37 - 340° (NNW) 2,983 4.8 -17.3°
Reaches altitude 10° 04:50:59 10° 343° (NNW) 2,479 4.4 -17.0°
Maximum altitude 04:56:33 52° 60° (ENE) 1,047 3.0 -16.1°
Drops below altitude 10° 05:02:03 10° 136° (SE) 2,463 5.5 -15.1°
Sets 05:04:33 0° 141° (SE) 3,393 6.2 -14.7°
